Back to Previous

Regional Weather Roundup

898 
ASUS44 KLZK 180505
RWRLZK

WEATHER ROUNDUP FOR ARKANSAS
NATIONAL WEATHER SERVICE LITTLE ROCK AR
1200 AM CDT THU SEP 18 2014

NOTE: "FAIR" INDICATES FEW OR NO CLOUDS BELOW 12,000 FEET WITH NO
SIGNIFICANT WEATHER AND/OR OBSTRUCTIONS TO VISIBILITY.

ARZ001-003-010-029-180600-
NORTHWEST ARKANSAS
  
CITY           SKY/WX    TMP DP  RH WIND       PRES   REMARKS
FAYETTEVILLE   FOG       65  65 100 CALM      29.95S VSB 1/2          
FORT SMITH     CLOUDY    70  66  87 N7        29.89R                  
HARRISON       MOCLDY    61  61 100 CALM      29.96R FOG              
BENTONVILLE    CLOUDY    64  63  94 CALM      29.95F                  
ROGERS         CLOUDY    65  63  93 SE8       29.95F                  
SILOAM SPGS    CLOUDY    64  59  82 S3        29.96R                  
HIGHFILL       CLOUDY    64  63  96 CALM      29.94F                  
$$

ARZ004-005-016-180600-
NORTH CENTRAL ARKANSAS
  
CITY           SKY/WX    TMP DP  RH WIND       PRES   REMARKS
BATESVILLE     CLOUDY    63  61  94 E6        29.96S                  
FLIPPIN        CLOUDY    64  61  88 CALM      29.95S VSB 1/4          
MTN HOME       CLOUDY    64  64 100 E7        29.95S FOG              
$$

ARZ040-041-180600-
WEST CENTRAL ARKANSAS
  
CITY           SKY/WX    TMP DP  RH WIND       PRES   REMARKS
MENA           CLOUDY    73  68  83 CALM      29.99S                  
MOUNT IDA      CLOUDY    74  71  91 VRB3      29.90F                  
$$

ARZ009-017-025-026-028-180600-
NORTHEAST ARKANSAS
  
CITY           SKY/WX    TMP DP  RH WIND       PRES   REMARKS
CORNING          N/A     64  63  94 NE6       29.99S                  
JONESBORO      PTCLDY    62  62 100 NE5       29.96F                  
NEWPORT        CLOUDY    63  63 100 NE6       29.97F FOG              
WALNUT RIDGE   PTCLDY    63  61  94 NE6       29.96F                  
BLYTHEVILLE    CLOUDY    64  63  96 CALM      29.97S                  
$$

ARZ022-023-033-042-044-180600-
CENTRAL ARKANSAS
  
CITY           SKY/WX    TMP DP  RH WIND       PRES   REMARKS
LITTLE ROCK    CLOUDY    74  69  85 SE5       29.91F                  
N LITTLE ROCK  CLOUDY    73  71  93 E5        29.91F                  
JACKSONVILLE   CLOUDY    71  69  93 E5        29.92S                  
SEARCY         CLOUDY    66  64  93 NE7       29.95S                  
HOT SPRINGS    CLOUDY    75  71  87 CALM      29.92R                  
RUSSELLVILLE   CLOUDY    73  70  90 SE3       29.89F                  
CLINTON        MOCLDY    64  64 100 CALM      29.94F FOG              
$$

ARZ036-180600-
EAST ARKANSAS
  
CITY           SKY/WX    TMP DP  RH WIND       PRES   REMARKS
WEST MEMPHIS   CLOUDY    64  64 100 NE5       29.93F                  
$$

ARZ050-053-066-070-073-180600-
SOUTHWEST ARKANSAS
  
CITY           SKY/WX    TMP DP  RH WIND       PRES   REMARKS
ARKADELPHIA    FAIR      73  73 100 CALM      29.92R                  
CAMDEN         CLOUDY    73  70  88 SW6       29.90F                  
TEXARKANA      PTCLDY    75  72  90 SE6       29.91F                  
EL DORADO      PTCLDY    72  70  93 NE3       29.92R                  
DE QUEEN       CLOUDY    74  73  97 CALM      29.91S FOG              
$$

ARZ056-057-069-180600-
SOUTHEAST ARKANSAS
  
CITY           SKY/WX    TMP DP  RH WIND       PRES   REMARKS
PINE BLUFF     CLOUDY    71  69  93 CALM      29.92F                  
STUTTGART      CLOUDY    72  66  83 E3        29.93S                  
MONTICELLO     CLOUDY    74  69  85 S3        29.91S                  

$$




USA.gov is the U.S. government's official web portal to all federal, state and local government web resources and services.